[[{"header":{"parameterUnit":"m.s-1","parameterCategory":1,"la1":30.2991,"la2":30.254,"lo1":-89.0895,"lo2":-89.0444,"dy":0.0017,"dx":0.0017,"nx":28,"ny":28,"refTime":"2025-08-27T21:00:00:Z","depth":0,"parameterNumber":2,"parameterNumberName":"U-component_of_WINDS"},"data":[0,0,0,0,0,0,0,0,0,0,0,0,0,0,0,0,0,0,0,0,0,0,0,0,0,0,0,0,0,0,0,0,0,0,0,0,0,0,0,0,0,0,0,0,0,0,0,0,0,0,0,0,0,0,0,0,0,0,0.0335,0.0336,0,0.0487,0.0489,0.0491,0.0579,0.0579,0.058,0.058,0.0737,0.074,0.0744,0,0,0,0,0,0,0,0,0,0,0,0,0,0.0119,0.0122,0.0334,0.0336,0.0338,0.0487,0.0489,0.0491,0.0579,0.0579,0.058,0.058,0.0735,0.074,0.0745,0,0,0,0,0,0,0,0,0,0,0,0,0,0.0236,0.0123,0.0334,0.04,0.0407,0.0487,0.0489,0.0492,0.0579,0.058,0.058,0.058,0.0734,0.0739,0.0745,0.0771,0,0,0.0763,0.0765,0,0,0,0,0,0,0,0,0.0229,0.0244,0.0388,0.0396,0.0404,0.0515,0.0471,0.0585,0.0579,0.0514,0.058,0.0581,0.0662,0.0674,0.0702,0.0778,0.0785,0.0763,0.0767,0.0769,0.0771,0,0,0,0,0,0,0,0.0221,0.0238,0.0395,0.039,0.04,0.0422,0.0439,0.0493,0.0583,0.052,0.0526,0.0543,0.0667,0.0696,0.0706,0.0787,0.0763,0.0768,0.0772,0.0774,0.0893,0.0893,0,0,0,0,0,0,0.0202,0.023,0.039,0.04,0.0316,0.0425,0.0445,0.0479,0.0583,0.0599,0.0543,0.0547,0.0686,0.0699,0.0712,0.0749,0.0769,0.0775,0.0778,0.0893,0.0893,0.0892,0,0,0,0,0,0,0.0197,0.0216,0.0384,0.0317,0.034,0.0429,0.0466,0.0481,0.0511,0.0601,0.0617,0.0556,0.0687,0.0704,0.0756,0.0755,0.0777,0.0783,0.0894,0.0893,0.0893,0.0822,0,0,0,0,0,0,0.0191,0.0213,0.0224,0.0316,0.0343,0.0425,0.0466,0.0484,0.052,0.0527,0.0617,0.0633,0.0688,0.0746,0.0761,0.0764,0.0787,0.0894,0.0893,0.0893,0.0825,0.082,0.0815,0,0,0,0,0,0.0183,0.0198,0.0224,0.0243,0.0358,0.0425,0.044,0.0504,0.052,0.0531,0.0589,0.063,0.0753,0.0751,0.0769,0.0773,0.0894,0.0894,0.0893,0.0828,0.0821,0.0815,0,0,0,0,0,0,0.0103,0.0211,0.0241,0.0287,0.0346,0.0439,0.0455,0.0495,0.055,0.0554,0.0631,0.0651,0.0695,0.074,0.0735,0.0803,0.0828,0.0831,0.0773,0.0767,0.0762,0.075,0.0792,0,0,0,0,0,0.009,0.0135,0.0228,0.0259,0.0287,0.0366,0.0397,0.0441,0.0506,0.0531,0.0593,0.0653,0.0706,0.0739,0.0793,0.0832,0.0853,0.0844,0.0839,0.0834,0.0835,0.086,0.0857,0.089,0.089,0.089,0,0,0.0065,0.013,0.0154,0.0244,0.0295,0.034,0.0386,0.0432,0.0466,0.0538,0.0591,0.0638,0.0711,0.0757,0.078,0.0795,0.0831,0.0833,0.0829,0.0833,0.0859,0.0856,0.0853,0.089,0.089,0.089,0,0,0.0042,0.0096,0.0128,0.0178,0.0255,0.0307,0.0315,0.0403,0.0437,0.0491,0.0547,0.0588,0.0677,0.0727,0.0764,0.076,0.08,0.0776,0.0749,0.0772,0.0769,0.0767,0.0766,0.0764,0.0777,0.0777,0.0777,0,0.0001,0.0071,0.0139,0.0182,0.022,0.0288,0.0321,0.0367,0.0456,0.0481,0.0497,0.061,0.0664,0.0723,0.0722,0.075,0.0761,0.0766,0.0764,0.0763,0.0762,0.0761,0.0761,0.0773,0.0774,0.0774,0.0774,0,0.0016,0.0064,0.008,0.0166,0.0206,0.0244,0.0318,0.0351,0.0392,0.0442,0.0497,0.0564,0.0633,0.065,0.069,0.0714,0.0721,0.0749,0.0776,0.0754,0.0755,0.0755,0.0768,0.077,0.0771,0.0771,0,0,-0.0054,0.0069,0.0074,0.0114,0.0204,0.0242,0.0283,0.035,0.0376,0.0436,0.0472,0.0546,0.0573,0.0615,0.0662,0.0682,0.0675,0.0708,0.0711,0.0699,0.0705,0.0683,0.0682,0.0702,0.0702,0.0702,0.0699,0,-0.0065,0.0012,0.0075,0.0128,0.0173,0.0238,0.0274,0.0333,0.0382,0.0427,0.0481,0.0532,0.0564,0.059,0.0613,0.067,0.0677,0.0672,0.0736,0.0737,0.0715,0.0682,0.0659,0.0653,0.07,0.07,0.07,0,-0.0067,-0.0009,0.0048,0.0134,0.0155,0.0186,0.0253,0.0295,0.0364,0.0398,0.0445,0.0494,0.054,0.0562,0.0627,0.0622,0.0652,0.0685,0.0686,0.0694,0.0717,0.0689,0.0653,0.0651,0.0701,0.0701,0.0701,0,-0.0124,-0.0032,0.0014,0.0046,0.0148,0.0168,0.0211,0.028,0.0316,0.0375,0.0399,0.0462,0.0496,0.0544,0.0609,0.0619,0.0667,0.0694,0.0696,0.0694,0.0702,0.0701,0.067,0.0722,0.0722,0.0723,0.0723,0,-0.0143,-0.0111,-0.001,0.0018,0.0056,0.0129,0.0165,0.0214,0.0275,0.0314,0.0375,0.041,0.0494,0.0539,0.059,0.0636,0.0651,0.068,0.0693,0.0674,0.067,0.0694,0.0696,0.0722,0.0722,0.0722,0.0722,0,-0.0202,-0.0133,-0.0078,0.0014,0.0038,0.0062,0.0141,0.0171,0.0223,0.0272,0.0288,0.037,0.0427,0.0496,0.0575,0.061,0.065,0.067,0.0627,0.0634,0.0632,0.0631,0.0615,0.0616,0.0668,0.0667,0.0667,0,-0.0218,-0.0192,-0.0097,-0.0066,-0.0025,0.0024,0.0062,0.0135,0.0171,0.0252,0.0272,0.0333,0.0386,0.0474,0.0541,0.0602,0.0624,0.0614,0.0633,0.0613,0.0623,0.062,0.0623,0.0608,0.0607,0.0607,0.0606,0,-0.0256,-0.0223,-0.0171,-0.0107,-0.0064,-0.001,0.0047,0.0068,0.0153,0.0191,0.025,0.0291,0.0372,0.0432,0.0502,0.0547,0.059,0.0599,0.0603,0.0584,0.0557,0.0571,0.0612,0.0599,0.06,0.06,0.0601,0.0601,-0.0294,-0.0267,-0.0196,-0.014,-0.009,-0.0038,-0.0005,0.0052,0.0102,0.0174,0.0214,0.0272,0.034,0.0438,0.0482,0.0528,0.0544,0.0549,0.055,0.055,0.0544,0.055,0.0541,0.0541,0.0541,0.0542,0.0542,0,-0.0328,-0.0279,-0.0228,-0.0151,-0.0107,-0.0069,-0.0004,0.003,0.008,0.014,0.0192,0.0259,0.0318,0.039,0.0454,0.0477,0.0499,0.0491,0.049,0.0499,0.0526,0.0517,0.0473,0.0473,0.0473,0.0473,0.0473,0.0473,-0.0341,-0.0294,-0.0253,-0.018,-0.013,-0.0073,-0.004,0.0008,0.0057,0.013,0.0179,0.0226,0.0291,0.036,0.0416,0.0436,0.0456,0.0442,0.0468,0.0492,0.0498,0.0503,0.0495,0.0446,0.0446,0.0437,0.0437,0.0437]},{"header":{"parameterUnit":"m.s-1","parameterCategory":1,"la1":30.2991,"la2":30.254,"lo1":-89.0895,"lo2":-89.0444,"dy":0.0017,"dx":0.0017,"nx":28,"ny":28,"refTime":"2025-08-27T21:00:00:Z","depth":0,"parameterNumber":3,"parameterNumberName":"V-component_of_WINDS"},"data":[0,0,0,0,0,0,0,0,0,0,0,0,0,0,0,0,0,0,0,0,0,0,0,0,0,0,0,0,0,0,0,0,0,0,0,0,0,0,0,0,0,0,0,0,0,0,0,0,0,0,0,0,0,0,0,0,0,0,2.2345,2.2345,0,2.2359,2.2359,2.2359,2.2364,2.2364,2.2364,2.2364,2.2377,2.2378,2.2378,0,0,0,0,0,0,0,0,0,0,0,0,0,2.2319,2.232,2.2345,2.2345,2.2345,2.2359,2.2359,2.2359,2.2364,2.2364,2.2364,2.2364,2.2377,2.2378,2.2378,0,0,0,0,0,0,0,0,0,0,0,0,0,2.2332,2.232,2.2345,2.2349,2.235,2.2359,2.2359,2.2359,2.2364,2.2364,2.2364,2.2364,2.2377,2.2378,2.2378,2.2384,0,0,2.238,2.238,0,0,0,0,0,0,0,0,2.2331,2.2333,2.2348,2.2349,2.2349,2.236,2.2355,2.2367,2.2364,2.2359,2.2364,2.2364,2.2371,2.2373,2.2375,2.2384,2.2385,2.238,2.2381,2.2381,2.2381,0,0,0,0,0,0,0,2.233,2.2332,2.235,2.2348,2.2349,2.235,2.2351,2.2358,2.2365,2.2359,2.236,2.2361,2.2372,2.2375,2.2376,2.2385,2.238,2.2381,2.2381,2.2381,2.2398,2.2398,0,0,0,0,0,0,2.2329,2.2331,2.235,2.2351,2.234,2.235,2.2352,2.2356,2.2365,2.2367,2.2361,2.2361,2.2374,2.2375,2.2376,2.2383,2.2381,2.2381,2.2382,2.2398,2.2398,2.2398,0,0,0,0,0,0,2.2328,2.233,2.2349,2.2341,2.2344,2.2351,2.2356,2.2357,2.236,2.2367,2.2368,2.2363,2.2374,2.2375,2.2382,2.2383,2.2382,2.2382,2.2398,2.2398,2.2398,2.2396,0,0,0,0,0,0,2.2327,2.233,2.2333,2.2341,2.2344,2.2355,2.2356,2.2357,2.2361,2.2361,2.2369,2.237,2.2374,2.2381,2.2382,2.2384,2.2383,2.2398,2.2398,2.2398,2.2396,2.2396,2.2396,0,0,0,0,0,2.2327,2.2331,2.2333,2.2335,2.2347,2.2355,2.2357,2.2361,2.2361,2.2363,2.2368,2.237,2.2383,2.2381,2.2383,2.2385,2.2398,2.2398,2.2398,2.2396,2.2396,2.2396,0,0,0,0,0,0,2.2323,2.2333,2.2334,2.2342,2.2348,2.2356,2.2359,2.2361,2.2367,2.2367,2.2372,2.2373,2.2379,2.2383,2.2381,2.239,2.239,2.2391,2.2388,2.2388,2.2388,2.2387,2.2383,0,0,0,0,0,2.2323,2.2329,2.2337,2.2343,2.2346,2.2352,2.2355,2.2358,2.2364,2.2366,2.2371,2.2377,2.2382,2.2385,2.239,2.2396,2.2398,2.2398,2.2398,2.2398,2.2399,2.2402,2.2402,2.2399,2.2399,2.2399,0,0,2.2323,2.2329,2.2332,2.2342,2.2347,2.2352,2.2354,2.236,2.2363,2.2367,2.2374,2.2377,2.2383,2.2389,2.2392,2.2392,2.24,2.2399,2.2398,2.2399,2.2402,2.2402,2.2402,2.2399,2.2399,2.2399,0,0,2.2326,2.2332,2.2337,2.2342,2.2349,2.2353,2.2354,2.2362,2.2364,2.2371,2.2374,2.2378,2.2387,2.2391,2.2394,2.2398,2.24,2.2399,2.2399,2.2402,2.2402,2.2403,2.2404,2.2404,2.24,2.24,2.24,0,2.2325,2.2334,2.2339,2.2345,2.2349,2.2353,2.2358,2.2362,2.237,2.2372,2.2372,2.2383,2.2388,2.2394,2.2395,2.2398,2.2399,2.2398,2.2402,2.2402,2.2403,2.2404,2.2404,2.24,2.24,2.24,2.24,0,2.2332,2.2338,2.2342,2.235,2.2354,2.2359,2.2365,2.2368,2.2371,2.2374,2.238,2.2386,2.2392,2.2393,2.2396,2.24,2.24,2.2401,2.2401,2.2403,2.2404,2.2404,2.2399,2.2399,2.2399,2.2399,0,0,2.2334,2.2345,2.2346,2.2349,2.2357,2.2361,2.2366,2.2373,2.2375,2.2381,2.2384,2.2392,2.2392,2.2396,2.2399,2.2401,2.2403,2.2402,2.2402,2.2402,2.2408,2.2407,2.2408,2.2404,2.2405,2.2405,2.2407,0,2.2338,2.2348,2.2352,2.2359,2.2364,2.2368,2.2372,2.2377,2.238,2.2385,2.2388,2.2393,2.2394,2.2396,2.2399,2.2402,2.2405,2.2402,2.2408,2.2408,2.2406,2.2408,2.2407,2.241,2.2408,2.2408,2.2408,0,2.2344,2.2349,2.2357,2.2364,2.2366,2.237,2.2376,2.238,2.2385,2.2388,2.2391,2.2394,2.2399,2.2398,2.2405,2.2403,2.2405,2.2407,2.2408,2.2408,2.2408,2.2409,2.2411,2.2411,2.2409,2.2409,2.2408,0,2.2344,2.2353,2.2359,2.2362,2.237,2.2372,2.2376,2.2381,2.2384,2.2389,2.2391,2.2396,2.2399,2.2402,2.2406,2.2406,2.2412,2.2412,2.2413,2.2413,2.2415,2.2414,2.2417,2.2416,2.2416,2.2416,2.2416,0,2.2347,2.2352,2.2359,2.2362,2.2367,2.2372,2.2377,2.238,2.2385,2.2389,2.2392,2.2395,2.24,2.2404,2.2407,2.2411,2.2412,2.2414,2.2415,2.2414,2.2413,2.2415,2.2415,2.2416,2.2416,2.2416,2.2416,0,2.2348,2.2353,2.236,2.2366,2.2368,2.2372,2.2377,2.238,2.2384,2.2389,2.239,2.2395,2.24,2.2404,2.241,2.2412,2.2416,2.2417,2.2415,2.2415,2.2416,2.2416,2.242,2.242,2.2419,2.2419,2.2419,0,2.235,2.2354,2.2361,2.2364,2.2367,2.2372,2.2375,2.238,2.2383,2.2389,2.2391,2.2396,2.2401,2.2408,2.2412,2.2416,2.2417,2.2418,2.2418,2.2417,2.2417,2.2417,2.2417,2.2418,2.2418,2.2418,2.2418,0,2.2353,2.2355,2.236,2.2366,2.237,2.2374,2.2379,2.2381,2.2386,2.2389,2.2394,2.2397,2.2403,2.2408,2.2413,2.2416,2.2418,2.2418,2.2419,2.2418,2.2416,2.2417,2.2414,2.2418,2.2418,2.2418,2.2418,2.2418,2.2355,2.2358,2.2363,2.2368,2.2372,2.2376,2.2379,2.2383,2.2387,2.2393,2.2395,2.24,2.2405,2.2411,2.2414,2.2418,2.2418,2.2419,2.2419,2.2419,2.2419,2.2415,2.2419,2.2419,2.2419,2.2419,2.2419,0,2.2358,2.2361,2.2366,2.2372,2.2376,2.2377,2.2382,2.2385,2.239,2.2394,2.2398,2.2403,2.2407,2.2412,2.2416,2.2418,2.2419,2.2419,2.2419,2.242,2.2418,2.2417,2.2418,2.2418,2.2418,2.2418,2.2418,2.2418,2.2359,2.2365,2.2367,2.2374,2.2378,2.2383,2.2385,2.2389,2.2392,2.2398,2.2402,2.2405,2.2409,2.2413,2.2417,2.2418,2.242,2.242,2.2421,2.242,2.242,2.242,2.2419,2.242,2.242,2.2422,2.2422,2.2422]}]]